Location: Kunchanapalle
(16.4623°N, 80.6176°E)
Time: 14:13:10
(UTC+00:00)

CENTAUR R/B - Pass Details

Date: 13 August 2020
Orbit: 756 x 1432 km, 63.4° (Epoch: 19 September)

Event Time Altitude Azimuth Distance (km) Brightness Sun altitude
Rises 13:19:33 0° 166° (SSE) 3,205 4.9 -4.6°
Reaches altitude 10° 13:22:48 10° 144° (SE) 2,318 4.0 -5.3°
Maximum altitude 13:25:55 16° 108° (ESE) 1,996 3.5 -6.0°
Drops below altitude 10° 13:29:11 10° 71° (ENE) 2,462 4.1 -6.8°
Sets 13:32:46 0° 51° (NE) 3,515 5.1 -7.6°
